Location: Chanteloup
(48.8560°N, 2.7390°E)
Time: 21:33:37
(UTC+00:00)

Cosmos 2322 Rocket - Pass Details

Date: 02 June 2022
Orbit: 833 x 851 km, 71.0° (Epoch: 06 July)

Event Time Altitude Azimuth Distance (km) Brightness Sun altitude
Rises 22:12:53 0° 240° (WSW) 3,372 5.3 -15.8°
Reaches altitude 10° 22:15:35 10° 250° (WSW) 2,441 4.6 -16.0°
Maximum altitude 22:20:31 31° 312° (NW) 1,426 4.0 -16.3°
Drops below altitude 10° 22:25:29 10° 14° (NNE) 2,455 5.5 -16.6°
Sets 22:28:14 0° 25° (NNE) 3,395 6.1 -16.7°
